Pula, Croatia

9:06 PM CEST on April 26, 2017 (GMT +0200)
Pula

Weather History for LDPL - January, 2013

Change the Weather History Date:

Tuesday, January 8, 2013

  Actual Average Record
Temperature  
Mean Temperature 40 °F -  
Max Temperature 51 °F - - ()
Min Temperature 30 °F - - ()
Degree Days  
Heating Degree Days 24    
Moisture  
Dew Point 34 °F    
Average Humidity 71    
Maximum Humidity 87    
Minimum Humidity 51    
Precipitation  
Precipitation 0.00 in - - ()
Sea Level Pressure  
Sea Level Pressure 30.27 in    
Wind  
Wind Speed 3 mph ()    
Max Wind Speed 6 mph    
Max Gust Speed -    
Visibility 8.8 miles    
Events      
T = Trace of Precipitation, MM = Missing Value Source: Averaged Metar Reports

Daily Weather History Graph

Daily Weather History Graph

Search for Another Location

Airport or City:

Trip Planner

Search our weather history database for the weather conditions in past years. The results will help you decide how hot, cold, wet, or windy it might be!

Date:

Astronomy

Jan. 08, 2013 Rise Set
Actual Time 7:41 AM CET 4:40 PM CET
Civil Twilight 7:08 AM CET 5:14 PM CET
Nautical Twilight 6:31 AM CET 5:50 PM CET
Astronomical Twilight 5:56 AM CET 6:26 PM CET
Moon 3:53 AM CET (1/8) 1:28 PM CET (1/8)
Length of Visible Light 10h 05m
Length of Day
8h 59m
Waning Crescent, 16% of the Moon is Illuminated
Jan 8
Waning Crescent
Jan 11
New
Jan 19
First Quarter
Jan 27
Full
Feb 3
Last Quarter

Hourly Weather History & Observations

Time (CET) Temp. Windchill Dew Point Humidity Pressure Visibility Wind Dir Wind Speed Gust Speed Precip Events Conditions
12:00 AM 39.2 °F 37.0 °F 32.0 °F 75% 30.27 in - Variable 3.5 mph - N/A   Clear
12:30 AM 39.2 °F - 30.2 °F 70% 30.27 in - Variable 2.3 mph - N/A   Clear
1:00 AM 38 °F - 30 °F 64% 30.32 in 19 mi ENE 2.2 mph - -  
1:00 AM 37.4 °F - 30.2 °F 75% 30.30 in - Variable 1.2 mph - N/A   Clear
1:30 AM 35.6 °F - 28.4 °F 75% 30.30 in - Variable 2.3 mph - N/A   Clear
2:00 AM 35.6 °F 32.8 °F 30.2 °F 81% 30.30 in - Variable 3.5 mph - N/A   Clear
2:30 AM 37.4 °F 33.8 °F 30.2 °F 75% 30.30 in - East 4.6 mph - N/A   Clear
3:00 AM 35.6 °F 30.7 °F 28.4 °F 75% 30.30 in - ENE 5.8 mph - N/A   Clear
3:30 AM 37.4 °F 33.8 °F 30.2 °F 75% 30.30 in - East 4.6 mph - N/A   Clear
4:00 AM 37 °F - 30 °F 66% 30.32 in 19 mi East 2.2 mph - -  
4:00 AM 37.4 °F - 30.2 °F 75% 30.30 in - Variable 2.3 mph - N/A   Clear
4:30 AM 33.8 °F - 26.6 °F 75% 30.30 in - Variable 2.3 mph - N/A   Clear
5:00 AM 33 °F - 29 °F 81% 30.32 in 19 mi ENE 4.5 mph - -  
5:00 AM 33.8 °F 30.8 °F 30.2 °F 87% 30.30 in - Variable 3.5 mph - N/A   Mostly Cloudy
5:30 AM 33.8 °F - 30.2 °F 87% 30.27 in - Variable 1.2 mph - N/A   Clear
6:00 AM 37 °F - 32 °F 76% 30.31 in 19 mi ENE 4.5 mph - -   Scattered Clouds
6:00 AM 37.4 °F 33.8 °F 32.0 °F 81% 30.27 in 6.2 mi ENE 4.6 mph - N/A   Partly Cloudy
6:30 AM 39.2 °F 35.9 °F 32.0 °F 75% 30.27 in 6.2 mi East 4.6 mph - N/A   Scattered Clouds
7:00 AM 40 °F - 33 °F 66% 30.31 in 19 mi ENE 4.5 mph - -   Mostly Cloudy
7:30 AM 41.0 °F 38.0 °F 33.8 °F 76% 30.30 in 6.2 mi ENE 4.6 mph - N/A   Mostly Cloudy
8:00 AM 41.0 °F 38.0 °F 32.0 °F 70% 30.30 in 6.2 mi ENE 4.6 mph - N/A   Mostly Cloudy
8:30 AM 42.8 °F 40.1 °F 33.8 °F 70% 30.30 in 6.2 mi ENE 4.6 mph - N/A   Mostly Cloudy
9:00 AM 42.8 °F 40.1 °F 33.8 °F 70% 30.30 in 6.2 mi ENE 4.6 mph - N/A   Mostly Cloudy
9:30 AM 44.6 °F 42.2 °F 33.8 °F 66% 30.30 in 6.2 mi East 4.6 mph - N/A   Mostly Cloudy
10:00 AM 45 °F - 34 °F 55% 30.33 in 19 mi ENE 2.2 mph - -   Mostly Cloudy
10:00 AM 44.6 °F - 33.8 °F 66% 30.30 in 6.2 mi Variable 1.2 mph - N/A   Mostly Cloudy
10:30 AM 44.6 °F 42.2 °F 35.6 °F 71% 30.30 in 6.2 mi ENE 4.6 mph - N/A   Mostly Cloudy
11:00 AM 46.4 °F 44.3 °F 35.6 °F 66% 30.30 in 6.2 mi East 4.6 mph - N/A   Mostly Cloudy
11:30 AM 48.2 °F - 35.6 °F 62% 30.30 in 6.2 mi East 4.6 mph - N/A   Mostly Cloudy
12:00 PM 48.2 °F - 35.6 °F 62% 30.30 in 6.2 mi East 5.8 mph - N/A   Mostly Cloudy
12:30 PM 48.2 °F - 35.6 °F 62% 30.27 in 6.2 mi Variable 2.3 mph - N/A   Mostly Cloudy
1:00 PM 49 °F - 36 °F 51% 30.30 in 19 mi ENE 4.5 mph - -   Scattered Clouds
1:00 PM 48.2 °F - 37.4 °F 66% 30.27 in 6.2 mi ENE 4.6 mph - N/A   Partly Cloudy
1:30 PM 50.0 °F - 37.4 °F 62% 30.27 in 6.2 mi ENE 4.6 mph - N/A   Scattered Clouds
2:00 PM 51.8 °F - 37.4 °F 58% 30.24 in 6.2 mi Variable 2.3 mph - N/A   Mostly Cloudy
2:30 PM 50.0 °F - 37.4 °F 62% 30.24 in 6.2 mi East 4.6 mph - N/A   Mostly Cloudy
3:00 PM 48.2 °F - 37.4 °F 66% 30.24 in 6.2 mi East 4.6 mph - N/A   Mostly Cloudy
3:30 PM 48.2 °F - 37.4 °F 66% 30.24 in 6.2 mi East 4.6 mph - N/A   Mostly Cloudy
4:00 PM 48 °F - 37 °F 54% 30.26 in 19 mi East 2.2 mph - -   Mostly Cloudy
4:00 PM 48.2 °F - 37.4 °F 66% 30.24 in 6.2 mi Variable 2.3 mph - N/A   Mostly Cloudy
4:30 PM 48.2 °F - 37.4 °F 66% 30.24 in 6.2 mi Variable 2.3 mph - N/A   Mostly Cloudy
5:00 PM 44.6 °F - 35.6 °F 71% 30.24 in 6.2 mi Variable 2.3 mph - N/A   Mostly Cloudy
5:30 PM 44.6 °F 42.2 °F 35.6 °F 71% 30.24 in 6.2 mi East 4.6 mph - N/A   Mostly Cloudy
6:00 PM 44.6 °F - 37.4 °F 76% 30.24 in 6.2 mi Variable 2.3 mph - N/A   Mostly Cloudy
6:30 PM 44.6 °F - 37.4 °F 76% 30.24 in 6.2 mi Variable 1.2 mph - N/A   Mostly Cloudy
7:00 PM 45 °F - 38 °F 68% 30.27 in 12 mi ENE 2.2 mph - -   Mostly Cloudy
7:00 PM 44.6 °F - 37.4 °F 76% 30.24 in 6.2 mi Variable 1.2 mph - N/A   Mostly Cloudy
7:30 PM 46.4 °F - 37.4 °F 71% 30.24 in 6.2 mi Variable 1.2 mph - N/A   Mostly Cloudy
8:00 PM 46.4 °F - 37.4 °F 71% 30.24 in 6.2 mi Variable 1.2 mph - N/A   Mostly Cloudy
8:30 PM 46.4 °F - 37.4 °F 71% 30.24 in 6.2 mi Variable 1.2 mph - N/A   Mostly Cloudy
9:00 PM 44.6 °F - 37.4 °F 76% 30.24 in 6.2 mi Variable 1.2 mph - N/A   Mostly Cloudy
9:30 PM 42.8 °F - 35.6 °F 76% 30.24 in 6.2 mi Calm Calm - N/A   Mostly Cloudy
10:00 PM 42 °F - 35 °F 70% 30.26 in 12 mi ENE 2.2 mph - -   Mostly Cloudy
10:00 PM 41.0 °F - 35.6 °F 81% 30.24 in - Variable 2.3 mph - N/A   Clear
10:30 PM 39.2 °F 35.9 °F 33.8 °F 81% 30.24 in 6.2 mi East 4.6 mph - N/A   Scattered Clouds
11:00 PM 42.8 °F - 37.4 °F 81% 30.24 in 6.2 mi Variable 1.2 mph - N/A   Scattered Clouds
11:30 PM 42.8 °F - 37.4 °F 81% 30.21 in 6.2 mi Variable 2.3 mph - N/A   Partly Cloudy